NOAA 16 DEB, 41285

Orbit data source: Space-Track

NOAA 16 DEB, 41285 is space debris in SSO originally from a launch on Thu, 21 Sep 2000 UTC launched from the Air Force Western Test Range (AFWTR). Debris objects in space refer to the collection of defunct objects orbiting the Earth. Examples of debris include non-operational satellites, rocket bodies, and fragments generated from explosions, collisions, or faulty payload assembly.

Loading next visibility...
Identifier
41285, 2000-055GM
Orbit
SSO
Country
Flag of USUS
Related business
Manufacturer
Unknown
Mission
Spacecraft
Bus & Motor
Unknown
Mass
Unknown
Launch date (UTC)
2000-09-21 (25 years ago)
Launch vehicle
Unknown
Launch site
Air Force Western Test Range (AFWTR)
Object type
Payload
Rocket body
Debris
Shape & HBR
Unknown shape, 0.1 m
Radar Cross Section
Small (<0.1 m²)

Expand to show TLE details & history
Last TLE update: 18 hours ago

TLE from 18 hours ago
0 NOAA 16 DEB
1 41285U 00055GM  25311.02580454  .00004769  00000-0  20147-2 0  9992
2 41285  98.6771  15.1521 0048699 295.7387  63.8770 14.25389142509815
Epoch: 2025-11-07T00:37Z
TLE epoch observation values (Epoch: 2025-11-07T00:37:09.512Z)
Latitude
-0.00003°
Longitude
-40.61322°
Altitude
794.835 km
Speed
7.464 km/s
True Right ascension
01h 00m 36s
True Declination
0° 00' 00"
Sunlit
Object was in full shadow at epoch
Visualization orbit readout
Latitude
Unknown
Longitude
Unknown
Altitude
Unknown
Speed
Unknown
Apparent Right ascension
Unknown
Apparent Declination
Unknown
Sunlit
N/A
Visualization observer readout
Local Sidereal Time
14:51:21
Azimuth
Unknown
Elevation
Unknown
Doppler factor
Unknown
Orbital elements
Apogee altitude
839.312 km
Perigee altitude
769.356 km
Semi-major axis
7,182.471 km
Eccentricity
0.00487
Inclination
98.6771°
RAAN
15.1521°
Arg. of periapsis
295.7387°
True anomaly
64.37939°
Mean anomaly
63.877°
Eccentric anomaly
64.12806°
Mean motion
3.5656 °/min
Orbital period
100.96 mins
BSTAR
0.0020147
Loading maneuver chart data...
Computing Atmospheric mass density...
Loading historical data...
Loading historical data...
Loading historical data...
Loading historical data...
Loading historical data...
Loading historical data...
Loading historical data...

Documentation

Showing up to 5 results
|